When you browse on this site, cookies collect data to enhance your experience and personalize the content and advertising you see.
Visit our Privacy Policy to learn more. By continuing to use the site, you agree to this use of cookies and data.
  • In Hungary
  • List of Countries
  • For 7 days
  • Water Temperature
  • Weather Map
  • News
  • Weather Widgets
  • user-avatar
    Login

    Hourly Weather Chernyy Zaton

    Today, 24 January, Friday

    Time Temperature Precipitation Wind Pressure Humidity
    00:00 -14°C° 0 mm 4 mps 742 mmHg 90%
    01:00 -14°C° 0 mm 4 mps 742 mmHg 90%
    02:00 -15°C° 0 mm 4 mps 743 mmHg 91%
    03:00 -15°C° 0 mm 4 mps 743 mmHg 91%
    04:00 -16°C° 0 mm 4 mps 744 mmHg 91%
    05:00 -16°C° 0 mm 4 mps 744 mmHg 92%
    06:00 -16°C° 0 mm 4 mps 745 mmHg 92%
    07:00 -15°C° 0 mm 3 mps 745 mmHg 92%
    08:00 -15°C° 0 mm 3 mps 746 mmHg 91%
    09:00 -15°C° 0 mm 3 mps 746 mmHg 91%
    10:00 -14°C° 0 mm 3 mps 746 mmHg 91%
    11:00 -15°C° 0 mm 4 mps 747 mmHg 90%
    12:00 -14°C° 0 mm 4 mps 747 mmHg 89%
    13:00 -14°C° 0 mm 4 mps 747 mmHg 89%
    14:00 -14°C° 0 mm 4 mps 746 mmHg 89%
    15:00 -14°C° 0 mm 4 mps 746 mmHg 89%
    16:00 -14°C° 0 mm 5 mps 746 mmHg 89%
    17:00 -15°C° 0 mm 5 mps 746 mmHg 89%
    18:00 -15°C° 0 mm 5 mps 746 mmHg 89%
    19:00 -16°C° 0 mm 6 mps 745 mmHg 89%
    20:00 -15°C° 0 mm 6 mps 745 mmHg 89%
    21:00 -15°C° 0 mm 7 mps 745 mmHg 89%
    22:00 -14°C° 0.1 mm 7 mps 744 mmHg 89%
    23:00 -13°C° 0.1 mm 8 mps 743 mmHg 89%

    Tomorrow, 25 January, Saturday

    Time Temperature Precipitation Wind Pressure Humidity
    00:00 -12°C° 0.1 mm 8 mps 742 mmHg 89%
    01:00 -11°C° 0.4 mm 8 mps 741 mmHg 91%
    02:00 -11°C° 0.4 mm 9 mps 740 mmHg 92%
    03:00 -10°C° 0.4 mm 9 mps 739 mmHg 93%
    04:00 -9°C° 0.3 mm 9 mps 738 mmHg 92%
    05:00 -8°C° 0.3 mm 9 mps 737 mmHg 91%
    06:00 -6°C° 0.3 mm 8 mps 736 mmHg 90%
    07:00 -5°C° 0 mm 8 mps 737 mmHg 90%
    08:00 -3°C° 0 mm 7 mps 737 mmHg 90%
    09:00 -2°C° 0 mm 6 mps 737 mmHg 90%
    10:00 -3°C° 0 mm 6 mps 737 mmHg 88%
    11:00 -3°C° 0 mm 6 mps 738 mmHg 87%
    12:00 -2°C° 0 mm 5 mps 738 mmHg 85%
    13:00 -2°C° 0 mm 5 mps 738 mmHg 86%
    14:00 -2°C° 0 mm 5 mps 738 mmHg 87%
    15:00 -2°C° 0 mm 5 mps 738 mmHg 87%
    16:00 -3°C° 0.1 mm 6 mps 737 mmHg 90%
    17:00 -3°C° 0.1 mm 6 mps 737 mmHg 93%
    18:00 -2°C° 0.1 mm 7 mps 736 mmHg 97%
    19:00 -2°C° 0.1 mm 7 mps 736 mmHg 94%
    20:00 -2°C° 0.1 mm 7 mps 735 mmHg 92%
    21:00 -2°C° 0.1 mm 7 mps 734 mmHg 90%
    22:00 -4°C° 0.2 mm 8 mps 733 mmHg 92%
    23:00 -4°C° 0.2 mm 8 mps 733 mmHg 94%

    Day after tomorrow, 26 January, Sunday

    Time Temperature Precipitation Wind Pressure Humidity
    00:00 -4°C° 0.2 mm 8 mps 732 mmHg 97%
    01:00 -4°C° 0.2 mm 9 mps 732 mmHg 92%
    02:00 -5°C° 0.2 mm 9 mps 731 mmHg 88%
    03:00 -6°C° 0.2 mm 9 mps 731 mmHg 84%
    04:00 -8°C° 0 mm 9 mps 732 mmHg 83%
    05:00 -8°C° 0 mm 9 mps 733 mmHg 82%
    06:00 -9°C° 0 mm 9 mps 733 mmHg 82%
    07:00 -9°C° 0 mm 9 mps 734 mmHg 82%
    08:00 -9°C° 0 mm 9 mps 735 mmHg 83%
    09:00 -8°C° 0 mm 8 mps 735 mmHg 83%
    10:00 -8°C° 0 mm 8 mps 736 mmHg 83%
    11:00 -8°C° 0 mm 8 mps 737 mmHg 83%
    12:00 -8°C° 0 mm 9 mps 737 mmHg 83%
    13:00 -8°C° 0 mm 9 mps 738 mmHg 83%
    14:00 -8°C° 0 mm 9 mps 740 mmHg 83%
    15:00 -8°C° 0 mm 9 mps 741 mmHg 83%
    16:00 -8°C° 0 mm 8 mps 742 mmHg 83%
    17:00 -10°C° 0 mm 8 mps 743 mmHg 83%
    18:00 -11°C° 0 mm 7 mps 744 mmHg 84%
    19:00 -11°C° 0 mm 7 mps 745 mmHg 84%
    20:00 -11°C° 0 mm 7 mps 745 mmHg 85%
    21:00 -10°C° 0 mm 6 mps 746 mmHg 85%
    22:00 -10°C° 0 mm 6 mps 746 mmHg 86%
    23:00 -11°C° 0 mm 6 mps 747 mmHg 86%

    27 January, Monday

    Time Temperature Precipitation Wind Pressure Humidity
    00:00 -11°C° 0 mm 6 mps 747 mmHg 87%
    01:00 -11°C° 0 mm 6 mps 747 mmHg 88%
    02:00 -11°C° 0 mm 6 mps 747 mmHg 88%
    03:00 -11°C° 0 mm 6 mps 747 mmHg 89%
    04:00 -11°C° 0 mm 5 mps 747 mmHg 89%
    05:00 -11°C° 0 mm 5 mps 747 mmHg 89%
    06:00 -11°C° 0 mm 5 mps 747 mmHg 89%
    07:00 -11°C° 0 mm 5 mps 747 mmHg 90%
    08:00 -10°C° 0 mm 5 mps 748 mmHg 90%
    09:00 -9°C° 0 mm 4 mps 748 mmHg 90%
    10:00 -8°C° 0 mm 4 mps 748 mmHg 91%
    11:00 -7°C° 0 mm 4 mps 748 mmHg 91%
    12:00 -5°C° 0 mm 4 mps 748 mmHg 91%
    13:00 -5°C° 0.1 mm 4 mps 748 mmHg 92%
    14:00 -5°C° 0.1 mm 3 mps 748 mmHg 94%
    15:00 -4°C° 0.1 mm 3 mps 747 mmHg 95%
    16:00 -3°C° 0.2 mm 4 mps 748 mmHg 95%
    17:00 -2°C° 0.2 mm 4 mps 748 mmHg 96%
    18:00 -1°C° 0.2 mm 5 mps 748 mmHg 97%
    19:00 -1°C° 0.1 mm 5 mps 748 mmHg 97%
    20:00 -1°C° 0.1 mm 5 mps 748 mmHg 97%
    21:00 -1°C° 0.1 mm 5 mps 748 mmHg 98%
    22:00 -1°C° 0 mm 5 mps 748 mmHg 98%
    23:00 -1°C° 0 mm 5 mps 748 mmHg 98%

    28 January, Tuesday

    Time Temperature Precipitation Wind Pressure Humidity
    00:00 -1°C° 0 mm 5 mps 749 mmHg 98%
    01:00 -1°C° 0 mm 5 mps 749 mmHg 98%
    02:00 -1°C° 0 mm 5 mps 749 mmHg 97%
    03:00 -1°C° 0 mm 5 mps 749 mmHg 97%
    04:00 -1°C° 0 mm 4 mps 749 mmHg 96%
    05:00 -1°C° 0 mm 4 mps 749 mmHg 95%
    06:00 0°C° 0 mm 3 mps 749 mmHg 94%
    07:00 -2°C° 0 mm 4 mps 749 mmHg 94%
    08:00 -2°C° 0 mm 4 mps 749 mmHg 94%
    09:00 -2°C° 0 mm 4 mps 749 mmHg 94%
    10:00 -2°C° 0 mm 4 mps 749 mmHg 94%
    11:00 -2°C° 0 mm 4 mps 749 mmHg 94%
    12:00 -2°C° 0 mm 4 mps 749 mmHg 93%
    13:00 -2°C° 0 mm 4 mps 749 mmHg 93%
    14:00 -1°C° 0 mm 3 mps 749 mmHg 93%
    15:00 -2°C° 0 mm 3 mps 749 mmHg 93%
    16:00 -2°C° 0 mm 3 mps 750 mmHg 94%
    17:00 -2°C° 0 mm 3 mps 750 mmHg 94%
    18:00 -2°C° 0 mm 3 mps 750 mmHg 94%
    19:00 -2°C° 0 mm 3 mps 750 mmHg 93%
    20:00 -2°C° 0 mm 3 mps 751 mmHg 93%
    21:00 -2°C° 0 mm 3 mps 751 mmHg 93%
    22:00 -2°C° 0 mm 2 mps 751 mmHg 93%
    23:00 -2°C° 0 mm 2 mps 751 mmHg 93%

    29 January, Wednesday

    Time Temperature Precipitation Wind Pressure Humidity
    00:00 -2°C° 0 mm 2 mps 752 mmHg 94%
    01:00 -3°C° 0 mm 2 mps 752 mmHg 93%
    02:00 -1°C° 0 mm 1 mps 752 mmHg 93%
    03:00 -1°C° 0 mm 1 mps 752 mmHg 93%
    04:00 -1°C° 0 mm 1 mps 752 mmHg 94%
    05:00 -1°C° 0 mm 1 mps 752 mmHg 94%
    06:00 -1°C° 0 mm 1 mps 753 mmHg 94%
    07:00 -3°C° 0 mm 2 mps 753 mmHg 95%
    08:00 -3°C° 0 mm 2 mps 753 mmHg 95%
    09:00 -3°C° 0 mm 2 mps 754 mmHg 96%
    10:00 -3°C° 0 mm 2 mps 754 mmHg 96%
    11:00 -3°C° 0 mm 2 mps 754 mmHg 95%
    12:00 -2°C° 0 mm 3 mps 754 mmHg 95%
    13:00 -2°C° 0 mm 3 mps 754 mmHg 96%
    14:00 -2°C° 0 mm 3 mps 754 mmHg 96%
    15:00 -2°C° 0 mm 3 mps 754 mmHg 97%
    16:00 -4°C° 0.1 mm 3 mps 754 mmHg 97%
    17:00 -4°C° 0.1 mm 3 mps 754 mmHg 97%
    18:00 -4°C° 0.1 mm 3 mps 754 mmHg 97%
    19:00 -4°C° 0 mm 3 mps 754 mmHg 97%
    20:00 -4°C° 0 mm 3 mps 754 mmHg 96%
    21:00 -4°C° 0 mm 3 mps 754 mmHg 96%
    22:00 -4°C° 0 mm 3 mps 754 mmHg 96%
    23:00 -4°C° 0 mm 3 mps 754 mmHg 96%
    Show more